Regional Weather Roundup
Issued by NWS

Home | Current Version | Previous Version | Text Only | Print | Product List | Glossary Off
Versions: 1 2 3 4 5 6 7 8 9 10 11 12 13 14 15 16 17 18 19 20 21 22 23 24 25 26 27 28 29 30 31 32 33 34 35 36 37 38 39 40 41 42 43 44 45 46 47 48 49 50

000
ASUS45 KCYS 191910
RWRWY

WYOMING REGIONAL WEATHER ROUNDUP
NATIONAL WEATHER SERVICE CHEYENNE WY
100 PM MDT TUE AUG 19 2014

NOTE:  "FAIR" INDICATES FEW OR NO CLOUDS BELOW 12,000 FEET
WITH NO SIGNIFICANT WEATHER AND/OR OBSTRUCTIONS TO VISIBILITY.

WYZ001-192000-
YELLOWSTONE NATIONAL PARK

CITY           SKY/WX    TMP DP  RH WIND       PRES   REMARKS
LK YELLOWSTONE   N/A     63  46  54 VRB5      30.15F
W YELLOWSTONE  NOT AVBL

$$
WYZ002>013-054>058-071-098>099-192000-
NORTHERN WYOMING

CITY           SKY/WX    TMP DP  RH WIND       PRES   REMARKS
JACKSON          N/A     70  46  43 SW5       30.04F
CODY           PTSUNNY   81  48  32 N6        29.88F
GREYBULL       MOSUNNY   87  42  20 S7        29.81F
WORLAND        PTSUNNY   86  42  21 W5        29.83F
SHERIDAN       MOSUNNY   90  39  16 CALM      29.81F
BUFFALO        MOSUNNY   86  34  15 VRB3      29.89F
GILLETTE       SUNNY     89  43  20 SW7       29.85F
HULETT         FAIR      86  50  28 MISG      29.86
NEWCASTLE      FAIR      86  43  22 S8        29.85

$$
WYZ014>020-022>026-101>103-192000-
CENTRAL WYOMING

CITY           SKY/WX    TMP DP  RH WIND       PRES   REMARKS
BIG PINEY      CLOUDY    69  38  32 S7        30.10F
PINEDALE       CLOUDY    68  36  30 W6        30.10F
DUBOIS         FAIR      73  30  20 W5        30.04F
LANDER         CLOUDY    81  38  21 NW10      29.94F
RIVERTON       CLOUDY    80  37  21 E8        29.95F
CASPER         PTSUNNY   82  36  19 SW22      29.94F
DOUGLAS        MOSUNNY   87  39  18 VRB3      29.92F

$$
WYZ021-027>030-104>119-192000-
SOUTHERN WYOMING

CITY           SKY/WX    TMP DP  RH WIND       PRES   REMARKS
EVANSTON       RAIN      53  52  96 SW10      30.17S FOG
KEMMERER       CLOUDY    61  43  51 S13       30.15F
FORT BRIDGER   CLOUDY    60  53  78 E6        30.16F
ROCK SPRINGS   LGT RAIN  58  51  78 W12       30.14S
DIXON          LGT RAIN  64  48  57 W14G28    30.19R
RAWLINS        CLOUDY    72  37  28 W20G30    30.09F
SARATOGA       MOCLDY    70  37  30 MISG      30.13S
LARAMIE        PTSUNNY   77  35  21 W9G18     30.09F
CHEYENNE       MOSUNNY   85  34  16 N12G20    29.99F
TORRINGTON     PTSUNNY   86  52  30 VRB6      29.86F
PINE BLUFFS    FAIR      86  46  25 W5        29.93F

$$


USA.gov is the U.S. government's official web portal to all federal, state and local government web resources and services.